CW4489 Marathon FL US current weather conditions

sailwx.info

Wind from 021 at 0 knots gusting 6

Air temperature 29.4° C
Dewpoint 23.6° C

Last reported at 2015-Aug-04 00:51 UTC.
Time now 2015-Aug-04 01:26 UTC

Location: N 24°44' W 081°02'.
View on Google Maps.

See reports from other nearby stations

  
Tides and Currents Weather Stations Pressure Air Temp Water Temp Dewpoint Dewpoint Depression Visibility Wind Speed Wind Dir Waves Ship Positions
date/time (UTC)wind fromknots sea level pressurealtimeterstation pressurevisibilityair tempwater tempwave heightnotes
2015-Aug-04 00:51 021 0 gusting 6 29.4
2015-Aug-04 00:41 042 2 gusting 4 29.4
2015-Aug-04 00:31 076 29.4
2015-Aug-04 00:11 076 30.0
2015-Aug-04 00:01 076 30.0
2015-Aug-03 23:41 076 30.0
2015-Aug-03 23:31 076 30.6
2015-Aug-03 23:21 084 30.6
2015-Aug-03 23:01 076 1 gusting 3 30.6
2015-Aug-03 22:41 064 2 gusting 5 31.1
2015-Aug-03 22:31 044 0 gusting 4 30.6
2015-Aug-03 22:11 049 2 gusting 6 31.1
2015-Aug-03 22:01 055 1 gusting 8 31.1
2015-Aug-03 21:41 047 0 gusting 4 30.6
2015-Aug-03 21:31 109 30.6
2015-Aug-03 21:21 109 30.6
2015-Aug-03 21:11 120 30.6
2015-Aug-03 21:01 080 30.6
2015-Aug-03 20:51 115 2 gusting 2 31.1
2015-Aug-03 20:31 090 31.1
2015-Aug-03 20:21 106 2 gusting 4 31.1
2015-Aug-03 20:11 145 2 gusting 4 31.1
2015-Aug-03 20:01 134 0 gusting 2 31.1
2015-Aug-03 19:51 149 0 gusting 3 31.1
2015-Aug-03 19:41 140 2 gusting 3 31.7
2015-Aug-03 19:01 172 2 gusting 4 32.8
2015-Aug-03 18:51 195 2 gusting 5 33.3
2015-Aug-03 18:41 213 2 gusting 5 34.4
2015-Aug-03 18:31 254 1 gusting 5 34.4
2015-Aug-03 17:31 136 1 gusting 4 35.0
2015-Aug-03 17:21 178 2 gusting 5 35.0
2015-Aug-03 17:11 190 2 gusting 4 35.0
2015-Aug-03 16:51 193 2 gusting 5 33.9
2015-Aug-03 16:41 140 0 gusting 4 33.9
2015-Aug-03 16:31 206 2 gusting 6 32.8
2015-Aug-03 16:21 139 2 gusting 6 32.8
2015-Aug-03 16:11 140 2 gusting 5 33.3
2015-Aug-03 16:01 148 2 gusting 3 33.9
2015-Aug-03 15:41 179 1 gusting 3 33.3
2015-Aug-03 15:31 144 1 gusting 4 32.8
2015-Aug-03 15:21 171 1 gusting 4 32.2
2015-Aug-03 15:11 128 2 gusting 6 31.7
2015-Aug-03 15:01 156 3 gusting 5 31.1
2015-Aug-03 14:51 115 0 gusting 6 31.1
2015-Aug-03 14:31 123 0 gusting 5 31.7
2015-Aug-03 14:11 127 1 gusting 3 31.7
2015-Aug-03 14:01 133 0 gusting 3 31.7
2015-Aug-03 13:41 107 0 gusting 4 31.7
2015-Aug-03 13:31 118 1 gusting 2 31.1
2015-Aug-03 13:21 119 31.1
2015-Aug-03 12:41 110 30.0
2015-Aug-03 12:11 142 28.9
2015-Aug-03 11:41 169 1 gusting 2 28.9
2015-Aug-03 11:11 134 28.3
2015-Aug-03 10:41 153 0 gusting 4 28.3
2015-Aug-03 10:21 132 28.3
2015-Aug-03 10:01 175 28.3
2015-Aug-03 09:51 202 5 gusting 5 28.3
2015-Aug-03 09:41 184 1 gusting 5 28.3
2015-Aug-03 09:31 192 1 gusting 3 28.3
2015-Aug-03 09:21 193 2 gusting 4 28.3
2015-Aug-03 09:11 185 28.3
2015-Aug-03 09:01 140 2 gusting 2 28.3
2015-Aug-03 08:51 185 28.3
2015-Aug-03 08:31 136 0 gusting 2 28.3
2015-Aug-03 08:21 125 2 gusting 2 28.3
2015-Aug-03 08:11 125 1 gusting 3 28.3
2015-Aug-03 08:01 155 28.3
2015-Aug-03 07:41 123 0 gusting 3 28.3
2015-Aug-03 07:31 120 28.3
2015-Aug-03 07:21 127 0 gusting 2 28.3
2015-Aug-03 07:01 202 28.3
2015-Aug-03 06:51 265 28.3
2015-Aug-03 06:41 264 28.3
2015-Aug-03 06:22 265 27.8
2015-Aug-03 06:09 265 27.8
2015-Aug-03 05:59 269 27.8
2015-Aug-03 05:49 269 27.8
2015-Aug-03 05:39 269 27.8
2015-Aug-03 05:29 269 27.8
2015-Aug-03 05:19 234 27.8
2015-Aug-03 05:09 232 0 gusting 1 27.8
2015-Aug-03 04:59 232 27.8
2015-Aug-03 04:49 232 27.8
2015-Aug-03 04:39 245 27.8
2015-Aug-03 04:29 250 27.8
2015-Aug-03 04:19 212 2 gusting 7 27.8
2015-Aug-03 04:09 244 2 gusting 6 27.8
2015-Aug-03 03:59 234 5 gusting 8 28.3
2015-Aug-03 03:49 209 3 gusting 4 28.9
2015-Aug-03 03:29 167 3 gusting 8 28.9
2015-Aug-03 02:59 173 2 gusting 8 28.9
2015-Aug-03 02:49 150 1 gusting 7 29.4
2015-Aug-03 02:39 350 29.4
2015-Aug-03 01:59 350 29.4
2015-Aug-03 01:49 350 29.4
2015-Aug-03 01:39 350 29.4
2015-Aug-03 01:29 350 29.4
2015-Aug-03 01:19 350 29.4
2015-Aug-03 00:49 350 29.4
2015-Aug-03 00:29 349 0 gusting 3 29.4
2015-Aug-03 00:09 355 0 gusting 6 29.4
2015-Aug-02 23:59 327 6 gusting 7 30.0
2015-Aug-02 23:29 217 0 gusting 4 30.6
2015-Aug-02 23:19 222 2 gusting 2 31.1
2015-Aug-02 23:09 193 0 gusting 2 31.1
2015-Aug-02 22:49 191 0 gusting 2 31.7
2015-Aug-02 22:39 175 32.2
2015-Aug-02 22:29 175 2 gusting 3 32.2
2015-Aug-02 22:19 184 0 gusting 3 32.8
2015-Aug-02 21:29 190 2 gusting 3 33.3
2015-Aug-02 21:19 202 2 gusting 4 32.8
2015-Aug-02 20:59 187 4 gusting 4 33.3
2015-Aug-02 20:39 221 2 gusting 4 33.3
2015-Aug-02 20:29 205 3 gusting 5 33.9
2015-Aug-02 20:19 205 2 gusting 6 33.3
2015-Aug-02 20:09 180 1 gusting 6 33.9
2015-Aug-02 19:59 184 2 gusting 5 34.4
2015-Aug-02 19:29 193 4 gusting 6 34.4
2015-Aug-02 19:19 182 2 gusting 6 34.4
2015-Aug-02 19:09 192 2 gusting 5 34.4
2015-Aug-02 18:49 198 0 gusting 6 34.4
2015-Aug-02 18:19 197 4 gusting 6 34.4
2015-Aug-02 17:59 213 3 gusting 6 35.0
2015-Aug-02 17:49 188 2 gusting 7 35.6
2015-Aug-02 17:39 200 1 gusting 6 35.6
2015-Aug-02 17:29 167 35.6
2015-Aug-02 16:59 144 1 gusting 6 35.6
2015-Aug-02 16:39 144 1 gusting 6 35.6
2015-Aug-02 16:29 150 1 gusting 4 35.6
2015-Aug-02 16:19 167 1 gusting 5 35.6
2015-Aug-02 15:59 200 3 gusting 4 34.4
2015-Aug-02 15:49 148 0 gusting 4 34.4
2015-Aug-02 15:39 162 0 gusting 4 34.4
2015-Aug-02 14:59 173 3 gusting 5 33.3
2015-Aug-02 14:49 169 0 gusting 5 33.9
2015-Aug-02 14:29 177 0 gusting 5 33.3
2015-Aug-02 14:09 151 32.8
2015-Aug-02 13:39 154 1 gusting 3 31.1
2015-Aug-02 13:09 200 3 gusting 6 31.1
2015-Aug-02 12:49 170 2 gusting 6 30.6
2015-Aug-02 11:49 149 3 gusting 5 29.4
2015-Aug-02 11:39 147 2 gusting 6 29.4
2015-Aug-02 11:19 145 2 gusting 5 29.4
2015-Aug-02 10:59 150 1 gusting 5 29.4
2015-Aug-02 10:49 136 0 gusting 6 29.4
2015-Aug-02 10:39 146 0 gusting 6 29.4
2015-Aug-02 10:29 132 3 gusting 5 29.4
2015-Aug-02 10:19 138 1 gusting 6 29.4
2015-Aug-02 10:09 146 2 gusting 6 29.4
2015-Aug-02 09:49 112 0 gusting 6 29.4
2015-Aug-02 09:09 175 2 gusting 4 29.4
2015-Aug-02 08:49 121 1 gusting 8 29.4
2015-Aug-02 08:29 123 2 gusting 7 29.4
2015-Aug-02 07:59 132 2 gusting 6 30.0
2015-Aug-02 07:49 144 4 gusting 6 30.0
2015-Aug-02 07:39 147 3 gusting 6 29.4
2015-Aug-02 07:29 140 30.0
2015-Aug-02 07:19 135 3 gusting 7 30.0
2015-Aug-02 07:09 153 4 gusting 5 30.0
2015-Aug-02 06:49 158 3 gusting 6 30.0
2015-Aug-02 06:29 145 1 gusting 7 30.0
2015-Aug-02 06:09 144 30.0
2015-Aug-02 05:49 165 4 gusting 6 30.0
2015-Aug-02 05:39 130 1 gusting 6 30.0
2015-Aug-02 05:29 161 1 gusting 6 30.0
2015-Aug-02 05:09 142 3 gusting 6 30.0
2015-Aug-02 04:49 141 2 gusting 6 30.0
2015-Aug-02 04:39 142 2 gusting 5 30.0
2015-Aug-02 04:29 132 4 gusting 6 30.0
2015-Aug-02 04:19 158 3 gusting 8 30.0
2015-Aug-02 04:09 154 0 gusting 6 30.0
2015-Aug-02 03:59 132 3 gusting 6 30.0
2015-Aug-02 03:49 163 3 gusting 6 30.0
2015-Aug-02 03:39 140 3 gusting 8 30.0
2015-Aug-02 03:29 111 2 gusting 6 30.0
2015-Aug-02 03:09 101 1 gusting 5 30.0
2015-Aug-02 02:59 135 2 gusting 8 30.0
2015-Aug-02 02:39 110 2 gusting 5 30.0
2015-Aug-02 02:19 138 4 gusting 5 30.0
2015-Aug-02 01:59 115 2 gusting 4 30.0
2015-Aug-02 01:39 114 1 gusting 4 30.0
2015-Aug-02 01:09 105 0 gusting 4 30.0